Regional Weather Roundup
Issued by NWS

Home | Current Version | Previous Version | Text Only | Print | Product List | Glossary On
Versions: 1 2 3 4 5 6 7 8 9 10 11 12 13 14 15 16 17 18 19 20 21 22 23 24 25 26 27 28 29 30 31 32 33 34 35 36 37 38 39 40 41 42 43 44 45 46 47 48 49 50
000
ASUS44 KFWD 312015
RWRTX
NORTH TEXAS HOURLY WEATHER ROUNDUP
NATIONAL WEATHER SERVICE FORT WORTH TX
300 PM CDT THU JUL 31 2014

NOTE: "FAIR" INDICATES FEW OR NO CLOUDS BELOW 12,000 FEET WITH NO
SIGNIFICANT WEATHER AND/OR OBSTRUCTIONS TO VISIBILITY.

TXZ118-119-312100-
DALLAS/FORT WORTH METROPLEX

CITY           SKY/WX    TMP DP  RH WIND       PRES   REMARKS
DFW AIRPORT    CLOUDY    77  67  71 N18       29.99S
DALLAS LOVE    CLOUDY    77  67  71 NW14G24   29.99R
FTW MEACHAM    CLOUDY    77  66  68 NW9       30.00S
DAL-EXECUTIVE  CLOUDY    79  67  66 NW16G23   29.98S
FTW-ALLIANCE   CLOUDY    74  66  76 N14       30.00S
FTW-NAS-JRB    PTSUNNY   79  64  60 N12       30.04F
FTW-SPINKS     CLOUDY    79  66  65 NW13      30.01F
ARLINGTON      CLOUDY    80  66  62 NW15      29.99S
GRAND PRAIRIE  CLOUDY    77  66  69 NW9       30.00S
ADDISON        CLOUDY    77  66  69 NW15G24   29.99F
MESQUITE       PTSUNNY   82  68  61 W16G22      N/A
LANCASTER      PTSUNNY   81  66  60 NW16G26   29.97S
$$

TXZ091>094-102>105-117-120-121-131>134-312100-
NORTH CENTRAL TEXAS

CITY           SKY/WX    TMP DP  RH WIND       PRES   REMARKS
SHRMAN/DENISON CLOUDY    71  67  89 N9        30.02S
GAINESVILLE    CLOUDY    71  66  86 N14       30.04S
BOWIE          CLOUDY    73  66  78 N8G16     30.05R
BRIDGEPORT     CLOUDY    75  64  66 NW9       30.05S
DECATUR        CLOUDY    73  66  79 N10G16    30.04S
DENTON         CLOUDY    75  67  76 N9G20     30.00F
MCKINNEY       CLOUDY    76  69  79 NW16      29.98S
GREENVILLE     RAIN      75  70  83 E5        29.95F
ROCKWALL       CLOUDY    78  71  78 NW14G21   29.95S
TERRELL        PTSUNNY   84  72  67 NW16      29.94R
WAXAHACHIE     CLOUDY    79  66  65 NW16      29.99R
CLEBURNE       CLOUDY    77  70  78 NW14G24   30.02S
GRANBURY       CLOUDY    79  65  63 N12       30.02F
$$

TXZ083>090-098>101-113>116-127>130-139>142-154-155-312100-
WESTERN NORTH TEXAS

CITY           SKY/WX    TMP DP  RH WIND       PRES   REMARKS
WICHITA FALLS  PTSUNNY   77  67  71 N18G24    30.05F
WF-KICKAPOO    PTSUNNY   78  65  64 N9G18     30.07S
VERNON         CLOUDY    77  63  63 N9        30.10F
ABILENE        CLOUDY    76  64  66 N15       30.10F
ABILENE-DYESS  PTSUNNY   76  65  67 NE8       30.09F
BRECKENRIDGE   CLOUDY    81  64  56 N15G21    30.05F
GRAHAM         CLOUDY    80  65  60 NW13      30.04S
MINERAL WELLS  CLOUDY    76  64  66 N17G23    30.02S
STEPHENVILLE   CLOUDY    82  64  54 N14       30.06S
COMANCHE       CLOUDY    81  64  55 N12       30.04F
BROWNWOOD      CLOUDY    81  64  57 NW12      30.05F
COLEMAN        CLOUDY    81  62  53 N15       30.07F
BRADY          PTSUNNY   82  66  57 N12       30.07S
$$

TXZ143>147-156>162-174-175-312100-
CENTRAL TEXAS

CITY           SKY/WX    TMP DP  RH WIND       PRES   REMARKS
WACO           MOSUNNY   87  69  54 NW14G24   29.97S HX  91
WACO-TSTC      MOSUNNY   86  72  62 NW12G21   29.96F HX  92
WACO-MCGREGOR  PTSUNNY   90  68  48 NW14G20   29.98S HX  93
HILLSBORO      PTSUNNY   83  68  60 NW12G20   29.98S
CORSICANA      PTSUNNY   90  71  53 W18G24    29.94F HX  96
MEXIA          PTSUNNY   88  71  56 W12G20    29.92F HX  94
HEARNE         CLOUDY    89  73  58 SW8       29.94F HX  96
CAMERON        CLOUDY    90  73  57 W9        29.94F HX  98
TEMPLE         MOSUNNY   91  68  46 W12G17    29.95S HX  95
KILLEEN        PTSUNNY   88  70  55 NW13      29.99F HX  92
KILLEEN-SKYLRK SUNNY     88  66  48 NW8G16    29.98F HX  90
FORT HOOD      PTSUNNY   92  69  47 W12       29.99S HX  97
GATESVILLE     CLOUDY    82  68  61 N12       30.02F
HAMILTON       CLOUDY    79  66  64 W9G16     30.04S
LAMPASAS       PTSUNNY   83  71  65 NW9       30.02S
$$

TXZ095>097-106>112-122>126-135>138-148>153-164>167-312100-
EAST TEXAS

CITY           SKY/WX    TMP DP  RH WIND       PRES   REMARKS
PARIS          CLOUDY    70  63  78 E12       30.00S
SULPHUR SPRNGS CLOUDY    75  71  88 E9        29.98F
CLARKSVILLE    CLOUDY    71  69  94 E7        30.00S
MOUNT PLEASANT CLOUDY    71  70  97 E6        29.99F
GILMER         CLOUDY    72  72 100 SE9       29.99S FOG
MINEOLA        PTSUNNY   75  73  94 SE7       29.96S
TYLER          PTSUNNY   78  72  81 SE12      29.95F
LONGVIEW       CLOUDY    74  70  87 SE9       29.96F
MARSHALL       CLOUDY    73  71  91 E3        30.01S
ATHENS         CLOUDY    79  77  94 S3        29.93R THUNDER
JACKSONVILLE   TSTM      77  74  91 CALM      29.99R VSB 1
HENDERSON      CLOUDY    73  72  98 SE7       29.97S
NACOGDOCHES    PTSUNNY   81  73  78 SE8       29.97S
LUFKIN         PTSUNNY   89  75  63 SE8       29.96F HX  99
$$

SUPPLEMENTAL OBSERVATIONS (CENTRAL)

CITY           SKY/WX    TMP DP  RH WIND       PRES   REMARKS
LAKE TEXOMA      N/A     68  68 100 NE10        N/A
CADDO GRASSLND   N/A     70  66  88 NE5         N/A
PAT MAYSE LAKE   N/A     66  64  94 N5          N/A
GREENVILLE       N/A     73  68  83 E6          N/A
LAKE LIMESTONE   N/A     88  81  79 SW10        N/A  HX 105
MCGREGOR         N/A     90  70  51 NW8G17      N/A  HX  95
$$

SUPPLEMENTAL OBSERVATIONS (WEST)

CITY           SKY/WX    TMP DP  RH WIND       PRES   REMARKS
MILLERS CREEK    N/A     77  70  78 N12         N/A
LBJ GRASSLAND    N/A     75  64  69 N10         N/A
COMANCHE         N/A     81  64  57 NW10        N/A
HAMBY            N/A     79  64  61 N10         N/A
IVIE RESERVOIR   N/A     81  64  57 NW8         N/A
COLORADO BEND    N/A     84  66  54 VRB8        N/A
$$

SUPPLEMENTAL OBSERVATIONS (EAST)

CITY           SKY/WX    TMP DP  RH WIND       PRES   REMARKS
TEXARKANA        N/A     72  66  83 NE3         N/A
LINDEN           N/A     72  68  88 E5          N/A
CADDO LAKE       N/A     72  70  94 E1          N/A
LUFKIN           N/A     84  79  84 MISG        N/A  HX  96
N SABINE NF      N/A     81  73  78 MISG        N/A
$$

SUPPLEMENTAL OBSERVATIONS ARE A COLLECTION OF AUTOMATED INSTRUMENTS
THAT ARE MAINTAINED BY A VARIETY OF FEDERAL AND STATE AGENCIES.
CERTAIN ELEMENTS...SUCH AS HUMIDITY VALUES AND SUSTAINED WIND
SPEEDS...MAY BE APPROXIMATED.




USA.gov is the U.S. government's official web portal to all federal, state and local government web resources and services.